KB1JDX Weather Reports


time (UTC)temp
C
wind
direction
speed
KPH
gust
KPH
rain 1hr
cm
rain 24hr
cm
rain mn
cm
humidity
%
barometer
mb
20260904195207 29 39 0.0 14.5 0.00 0.00 0.00 49 1008.5
20260904193207 29 302 0.0 14.5 0.00 0.00 0.00 47 1008.6
20260904193103 29 51 0.0 14.5 0.00 0.00 0.00 47 1008.5
20260904185206 27 294 0.0 12.9 0.00 0.00 0.00 50 1008.7
20260904183206 27 45 0.0 12.9 0.00 0.00 0.00 49 1008.9
20260904183103 27 45 0.0 12.9 0.00 0.00 0.00 49 1008.8
20260904181206 28 34 0.0 12.9 0.00 0.00 0.00 47 1008.8
20260904175206 28 303 0.0 11.3 0.00 0.00 0.00 48 1008.6
20260904173206 27 276 0.0 11.3 0.00 0.00 0.00 47 1008.9
20260904173103 27 277 0.0 11.3 0.00 0.00 0.00 47 1009.0
20260904171206 27 16 0.0 11.3 0.00 0.00 0.00 46 1009.0
20260904165206 27 52 0.0 14.5 0.00 0.00 0.00 45 1009.2
20260904163207 27 285 0.0 14.5 0.00 0.00 0.00 44 1009.3
20260904163103 27 285 0.0 14.5 0.00 0.00 0.00 44 1009.3
20260904161206 27 324 0.0 14.5 0.00 0.00 0.00 43 1009.4
20260904155207 27 348 0.0 11.3 0.00 0.00 0.00 41 1009.4
20260904153103 26 290 0.0 11.3 0.00 0.00 0.00 39 1009.5
20260904151207 26 9 0.0 11.3 0.00 0.00 0.00 37 1009.4
20260904145206 26 264 0.0 3.2 0.00 0.00 0.00 31 1009.6
20260904143205 26 300 0.0 3.2 0.00 0.00 0.00 20 1009.6
20260904143103 25 300 0.0 3.2 0.00 0.00 0.00 19 1009.6
20260904141208 25 36 0.0 3.2 0.00 0.00 0.00 100 1009.7
20260904135206 23 210 0.0 0.0 0.00 0.00 0.00 100 1009.8
20260904133208 22 209 0.0 0.0 0.00 0.00 0.00 100 1010.0
20260904133103 22 209 0.0 0.0 0.00 0.00 0.00 100 1010.0
20260904125205 21 209 0.0 0.0 0.00 0.00 0.00 100 1010.2
20260904123103 21 209 0.0 0.0 0.00 0.00 0.00 100 1010.2
20260904113206 20 209 0.0 0.0 0.00 0.00 0.00 100 1010.0
20260904113103 20 209 0.0 0.0 0.00 0.00 0.00 100 1009.9
20260904111205 20 209 0.0 0.0 0.00 0.00 0.00 100 1009.7
20260904105206 20 209 0.0 0.0 0.00 0.00 0.00 100 1009.8
20260904103103 20 209 0.0 0.0 0.00 0.00 0.00 100 1009.8
20260904101205 20 209 0.0 0.0 0.00 0.00 0.00 100 1009.5
20260904093205 20 209 0.0 0.0 0.00 0.00 0.00 100 1009.4
20260904093102 20 209 0.0 0.0 0.00 0.00 0.00 100 1009.5
20260904083205 20 209 0.0 0.0 0.00 0.00 0.00 100 1009.3
20260904083102 20 209 0.0 0.0 0.00 0.00 0.00 100 1009.3
20260904081205 20 209 0.0 0.0 0.00 0.00 0.00 100 1009.4
20260904075205 20 209 0.0 0.0 0.00 0.00 0.00 100 1009.4
20260904073205 20 209 0.0 0.0 0.00 0.00 0.00 100 1009.5
20260904073102 20 209 0.0 0.0 0.00 0.00 0.00 100 1009.5
20260904071205 20 209 0.0 0.0 0.00 0.00 0.00 100 1010.0
20260904065205 20 209 0.0 0.0 0.00 0.00 0.00 100 1010.1
20260904063205 20 209 0.0 0.0 0.00 0.00 0.00 100 1010.4
20260904063102 20 209 0.0 0.0 0.00 0.00 0.00 100 1010.4
20260904061205 20 209 0.0 0.0 0.00 0.00 0.00 100 1010.3
20260904053206 20 209 0.0 0.0 0.00 0.00 0.00 100 1010.8
20260904053102 20 209 0.0 0.0 0.00 0.00 0.00 100 1010.8
20260904051205 21 209 0.0 0.0 0.00 0.00 0.00 100 1010.8
20260904045205 21 209 0.0 0.0 0.00 0.00 0.00 100 1011.2
20260904043205 21 209 0.0 0.0 0.00 0.00 0.00 100 1011.1
20260904043102 21 209 0.0 0.0 0.00 0.00 0.00 100 1011.1
20260904033206 21 209 0.0 0.0 0.00 0.00 0.00 100 1011.5
20260904033103 21 209 0.0 0.0 0.00 0.00 0.00 100 1011.5
20260904031205 21 209 0.0 0.0 0.00 0.00 0.00 100 1011.5
20260904025205 22 209 0.0 0.0 0.00 0.00 0.00 100 1011.6
20260904023206 22 209 0.0 0.0 0.00 0.00 0.00 100 1011.7
20260904023103 22 209 0.0 0.0 0.00 0.00 0.00 100 1011.8
20260904021205 22 209 0.0 0.0 0.00 0.00 0.00 100 1012.1
20260904015205 22 209 0.0 0.0 0.00 0.00 0.00 100 1012.1
20260904013205 22 209 0.0 0.0 0.00 0.00 0.00 100 1012.1
20260904013102 22 209 0.0 0.0 0.00 0.00 0.00 100 1012.1
20260904011205 22 209 0.0 0.0 0.00 0.00 0.00 100 1012.2
20260904005205 23 209 0.0 0.0 0.00 0.00 0.00 100 1012.0
20260904003205 23 209 0.0 0.0 0.00 0.00 0.00 100 1011.9
20260904003102 23 209 0.0 0.0 0.00 0.00 0.00 100 1011.9
20260904001205 23 209 0.0 0.0 0.00 0.00 0.00 100 1011.6
20260903235206 23 209 0.0 0.0 0.00 0.00 0.00 100 1011.5
20260903233102 24 209 0.0 0.0 0.00 0.00 0.00 100 1011.4
20260903231205 25 209 0.0 0.0 0.00 0.00 0.00 100 1011.3
20260903225205 25 209 0.0 1.6 0.00 0.00 0.00 100 1011.0
20260903223205 26 209 0.0 1.6 0.00 0.00 0.00 100 1011.1
20260903223103 26 209 0.0 1.6 0.00 0.00 0.00 100 1011.2
20260903221205 26 209 0.0 1.6 0.00 0.00 0.00 3 1011.2
20260903215205 26 209 0.0 8.0 0.00 0.00 0.00 10 1011.4
20260903213205 27 209 0.0 8.0 0.00 0.00 0.00 21 1011.3
20260903213102 27 209 0.0 8.0 0.00 0.00 0.00 21 1011.2
20260903211205 27 209 0.0 8.0 0.00 0.00 0.00 21 1011.3
20260903205207 27 209 0.0 0.0 0.00 0.00 0.00 18 1011.3
20260903203205 27 208 0.0 0.0 0.00 0.00 0.00 19 1011.3
20260903203102 27 209 0.0 0.0 0.00 0.00 0.00 18 1011.3
20260903201205 27 209 0.0 0.0 0.00 0.00 0.00 13 1011.3